Change the Weather History Date:

Tuesday, January 1, 2013

  Actual Average Record
Temperature  
Mean Temperature 45 °F 37 °F  
Max Temperature 48 °F 41 °F 50 °F (2002)
Min Temperature 42 °F 32 °F 2 °F (1950)
Degree Days  
Heating Degree Days 20 28  
Month to date heating degree days 20 28  
Since 1 July heating degree days 3063 2939  
Cooling Degree Days 0    
Month to date cooling degree days 0  
Year to date cooling degree days 0  
Moisture  
Dew Point 29 °F    
Average Humidity 0    
Maximum Humidity 0    
Minimum Humidity 0    
Precipitation  
Precipitation 0.39 in 0.36 in 2.08 in (1962)
Month to date precipitation 0.39 0.36  
Year to date precipitation 0.39 0.36  
Snow  
Snow 0.00 in 0.30 in 2.30 in (1965)
Month to date snowfall 0.0 0.3  
Since 1 July snowfall 11.4 12.0  
Snow Depth 0.00 in    
Sea Level Pressure  
Sea Level Pressure 30.14 in    
Wind  
Wind Speed 14 mph (SE)    
Max Wind Speed 25 mph    
Max Gust Speed 40 mph    
Visibility 10 miles    
Events Rain    
T = Trace of Precipitation, MM = Missing Value Source: NWS Daily Summary

Daily Weather History Graph

Daily Weather History Graph

Search for Another Location

Airport or City:

Trip Planner

Search our weather history database for the weather conditions in past years. The results will help you decide how hot, cold, wet, or windy it might be!

Date:

Astronomy

Jan. 01, 2013 Rise Set
Actual Time 8:11 AM AKST 3:29 PM AKST
Civil Twilight 7:26 AM AKST 4:14 PM AKST
Nautical Twilight 6:38 AM AKST 5:01 PM AKST
Astronomical Twilight 5:54 AM AKST 5:45 PM AKST
Moon 8:59 PM AKST (1/1) 9:39 AM AKST (1/1)
Length of Visible Light 8h 48m
Length of Day
7h 17m
Waning Gibbous, 82% of the Moon is Illuminated
Jan 1
Waning Gibbous
Jan 4
Last Quarter
Jan 11
New
Jan 18
First Quarter
Jan 26
Full

Hourly Weather History & Observations

Time (AKST) Temp. Windchill Dew Point Humidity Pressure Visibility Wind Dir Wind Speed Gust Speed Precip Events Conditions
12:53 AM 43.0 °F 37.2 °F 33.1 °F 68% 30.35 in 10.0 mi ESE 10.4 mph - N/A   Mostly Cloudy
1:53 AM 43.0 °F 37.2 °F 32.0 °F 65% 30.35 in 10.0 mi ESE 10.4 mph - N/A   Overcast
2:50 AM 42.8 °F 38.0 °F 30.2 °F 61% 30.33 in 10.0 mi ESE 8.1 mph - N/A   Scattered Clouds
3:53 AM 42.1 °F 37.7 °F 30.0 °F 62% 30.32 in 10.0 mi ESE 6.9 mph - N/A   Clear
4:53 AM 43.0 °F 37.2 °F 27.0 °F 53% 30.30 in 10.0 mi ESE 10.4 mph - N/A   Clear
5:53 AM 43.0 °F 37.7 °F 26.1 °F 51% 30.28 in 10.0 mi ESE 9.2 mph - N/A   Overcast
6:53 AM 45.0 °F 38.9 °F 21.0 °F 39% 30.24 in 10.0 mi ESE 12.7 mph 19.6 mph N/A   Overcast
7:53 AM 44.1 °F 37.4 °F 19.0 °F 37% 30.23 in 10.0 mi ESE 13.8 mph 18.4 mph N/A   Overcast
8:53 AM 46.0 °F 39.3 °F 17.1 °F 31% 30.20 in 10.0 mi ESE 16.1 mph 23.0 mph N/A   Overcast
9:53 AM 48.0 °F - 15.1 °F 27% 30.18 in 10.0 mi ESE 13.8 mph 23.0 mph N/A   Overcast
10:53 AM 46.9 °F - 15.1 °F 28% 30.16 in 10.0 mi SE 12.7 mph 23.0 mph N/A   Overcast
11:53 AM 43.0 °F 37.2 °F 28.9 °F 58% 30.16 in 10.0 mi SSE 10.4 mph 16.1 mph N/A   Overcast
12:53 PM 42.1 °F 35.2 °F 30.0 °F 62% 30.16 in 10.0 mi SE 12.7 mph 23.0 mph N/A   Overcast
1:53 PM 42.1 °F 34.5 °F 28.0 °F 58% 30.13 in 10.0 mi SE 15.0 mph 25.3 mph N/A   Overcast
2:53 PM 42.1 °F 33.9 °F 27.0 °F 55% 30.10 in 10.0 mi SE 17.3 mph 25.3 mph N/A   Overcast
3:53 PM 43.0 °F 35.4 °F 28.0 °F 56% 30.08 in 10.0 mi ESE 16.1 mph 24.2 mph N/A   Overcast
4:53 PM 44.1 °F 36.8 °F 28.9 °F 55% 30.07 in 10.0 mi SE 16.1 mph 25.3 mph 0.00 in   Overcast
5:18 PM 44.6 °F 36.9 °F 28.4 °F 53% 30.05 in 10.0 mi SE 18.4 mph 27.6 mph N/A   Overcast
5:48 PM 42.8 °F 34.8 °F 32.0 °F 66% 30.04 in 10.0 mi ESE 17.3 mph 26.5 mph 0.01 in Rain Light Rain
5:53 PM 42.1 °F 34.2 °F 32.0 °F 67% 30.04 in 10.0 mi ESE 16.1 mph 26.5 mph 0.01 in Rain Light Rain
6:53 PM 42.1 °F 33.3 °F 35.1 °F 76% 30.03 in 10.0 mi SE 19.6 mph 27.6 mph 0.06 in Rain Light Rain
7:28 PM 42.8 °F 35.4 °F 33.8 °F 70% 30.02 in 10.0 mi SE 15.0 mph 26.5 mph 0.01 in Rain Light Rain
7:53 PM 44.1 °F 37.4 °F 36.0 °F 73% 30.01 in 9.0 mi SE 13.8 mph 32.2 mph 0.02 in Rain Light Rain
8:53 PM 43.0 °F 34.2 °F 39.0 °F 86% 30.01 in 5.0 mi SSE 20.7 mph 33.4 mph 0.09 in Rain Rain
9:53 PM 44.1 °F 36.5 °F 37.9 °F 79% 30.00 in 9.0 mi SE 17.3 mph 36.8 mph 0.07 in Rain Light Rain
10:53 PM 44.1 °F 34.8 °F 39.0 °F 82% 29.98 in 9.0 mi SE 25.3 mph 40.3 mph 0.04 in Rain Light Rain
11:53 PM 44.1 °F 37.1 °F 39.9 °F 85% 29.97 in 7.0 mi SSE 15.0 mph 24.2 mph 0.09 in Rain Rain